Weather History for Spearfish, SD

Change the Weather History Date:

Monday, March 3, 2014

  Actual Average (KEFC) Record (KEFC)
Temperature  
Mean Temperature 18 °F -  
Max Temperature 44 °F 41 °F 68 °F (1983)
Min Temperature -9 °F 15 °F -19 °F (1960)
Degree Days  
Heating Degree Days 48    
Moisture  
Dew Point 12 °F    
Average Humidity 70    
Maximum Humidity 85    
Minimum Humidity 53    
Precipitation  
Precipitation 0.00 in - - ()
Sea Level Pressure  
Sea Level Pressure 29.86 in    
Wind  
Wind Speed 4 mph (WSW)    
Max Wind Speed 17 mph    
Max Gust Speed 17 mph    
Visibility 10 miles    
Events      
Averages and records for this station are not official NWS values.
T = Trace of Precipitation, MM = Missing Value Source: NWS Daily Summary

Daily Weather History Graph

Daily Weather History Graph

Search for Another Location

Airport:

Trip Planner

Search our weather history database for the weather conditions in past years. The results will help you decide how hot, cold, wet, or windy it might be!

Date:

Astronomy

Mar. 03, 2014 Rise Set
Actual Time 7:28 AM CST 6:45 PM CST
Civil Twilight 6:59 AM CST 7:14 PM CST
Nautical Twilight 6:26 AM CST 7:48 PM CST
Astronomical Twilight 5:52 AM CST 8:22 PM CST
Moon 8:31 AM CST (3/3) 10:00 PM CST (3/3)
Length of Visible Light 12h 15m
Length of Day
11h 16m
Waxing Crescent, 8% of the Moon is Illuminated
Mar 3
Waxing Crescent
Mar 8
First Quarter
Mar 16
Full
Mar 23
Last Quarter
Mar 30
New

Hourly Weather History & Observations

Time (CST) Temp. Windchill Dew Point Humidity Pressure Visibility Wind Dir Wind Speed Gust Speed Precip Events Conditions
12:15 AM -9.4 °F -18.6 °F -14.8 °F 77% 29.99 in 10.0 mi ESE 3.5 mph - N/A   Clear
12:35 AM -9.4 °F -18.6 °F -13.0 °F 84% 29.98 in 10.0 mi ESE 3.5 mph - N/A   Clear
12:55 AM -7.6 °F - - N/A% 29.96 in 10.0 mi Calm Calm - N/A   Clear
1:15 AM -7.6 °F - - N/A% 29.95 in 10.0 mi Calm Calm - N/A   Clear
1:35 AM -7.6 °F - -13.0 °F 77% 29.94 in 10.0 mi Calm Calm - N/A   Clear
1:55 AM -7.6 °F - -13.0 °F 77% 29.94 in 10.0 mi Calm Calm - N/A   Clear
2:15 AM -7.6 °F -16.5 °F -13.0 °F 77% 29.93 in 10.0 mi WNW 3.5 mph - N/A   Clear
2:35 AM -7.6 °F -18.8 °F -13.0 °F 77% 29.92 in 10.0 mi West 4.6 mph - N/A   Clear
2:55 AM -7.6 °F -20.6 °F -13.0 °F 77% 29.91 in 10.0 mi West 5.8 mph - N/A   Clear
3:15 AM -7.6 °F -20.6 °F - N/A% 29.88 in 10.0 mi West 5.8 mph - N/A   Clear
3:35 AM -7.6 °F - -11.2 °F 84% 29.86 in 10.0 mi Calm Calm - N/A   Clear
3:55 AM -5.8 °F -14.5 °F -11.2 °F 77% 29.85 in 10.0 mi South 3.5 mph - N/A   Clear
4:15 AM -5.8 °F - -11.2 °F 77% 29.85 in 10.0 mi Calm Calm - N/A   Clear
4:35 AM -5.8 °F -14.5 °F -11.2 °F 77% 29.84 in 10.0 mi West 3.5 mph - N/A   Clear
4:55 AM -5.8 °F -16.7 °F -11.2 °F 77% 29.84 in 10.0 mi West 4.6 mph - N/A   Clear
5:15 AM -5.8 °F -14.5 °F -11.2 °F 77% 29.83 in 10.0 mi West 3.5 mph - N/A   Clear
5:35 AM -4.0 °F -12.4 °F -9.4 °F 78% 29.83 in 10.0 mi WSW 3.5 mph - N/A   Clear
5:55 AM -2.2 °F -10.4 °F -9.4 °F 71% 29.82 in 10.0 mi SSE 3.5 mph - N/A   Clear
6:15 AM -2.2 °F -12.5 °F -7.6 °F 78% 29.80 in 10.0 mi ESE 4.6 mph - N/A   Clear
6:35 AM -0.4 °F - -4.0 °F 85% 29.82 in 10.0 mi Calm Calm - N/A   Clear
6:55 AM -2.2 °F -16.8 °F -7.6 °F 78% 29.81 in 10.0 mi West 8.1 mph - N/A   Clear
7:15 AM -2.2 °F -16.8 °F -7.6 °F 78% 29.81 in 10.0 mi West 8.1 mph - N/A   Clear
7:35 AM -2.2 °F - -7.6 °F 78% 29.82 in 10.0 mi North - - N/A   Clear
7:55 AM -0.4 °F - -5.8 °F 78% 29.82 in 10.0 mi North - - N/A   Clear
8:15 AM -0.4 °F - -4.0 °F 85% 29.83 in 10.0 mi North - - N/A   Clear
8:35 AM -0.4 °F - -5.8 °F 78% 29.82 in 10.0 mi North - - N/A   Clear
8:55 AM -0.4 °F -21.2 °F -7.6 °F 72% 29.86 in 10.0 mi WNW 17.3 mph - N/A   Clear
9:15 AM -2.2 °F -20.7 °F -7.6 °F 78% 29.89 in 10.0 mi West 12.7 mph - N/A   Clear
9:35 AM -0.4 °F -12.0 °F -5.8 °F 78% 29.88 in 10.0 mi WSW 5.8 mph - N/A   Clear
9:55 AM 1.4 °F - -2.2 °F 85% 29.86 in 10.0 mi Calm Calm - N/A   Clear
10:15 AM 6.8 °F -2.0 °F -0.4 °F 72% 29.86 in 10.0 mi SE 4.6 mph - N/A   Clear
10:35 AM 10.4 °F 2.2 °F 5.0 °F 79% 29.85 in 10.0 mi South 4.6 mph - N/A   Clear
10:55 AM 19.4 °F 14.3 °F 14.0 °F 80% 29.86 in 10.0 mi West 3.5 mph - N/A   Clear
11:15 AM 26.6 °F - 17.6 °F 69% 29.86 in 10.0 mi Calm Calm - N/A   Partly Cloudy
11:35 AM 35.6 °F 29.9 °F 24.8 °F 65% 29.87 in 10.0 mi West 6.9 mph - N/A   Scattered Clouds
11:55 AM 37.4 °F 33.8 °F 26.6 °F 65% 29.87 in 10.0 mi WNW 4.6 mph - N/A   Mostly Cloudy
12:15 PM 41.0 °F 35.8 °F 28.4 °F 61% 29.86 in 10.0 mi West 8.1 mph - N/A   Partly Cloudy
12:35 PM 41.0 °F 35.8 °F 30.2 °F 65% 29.85 in 10.0 mi West 8.1 mph - N/A   Clear
12:55 PM 44.6 °F 39.7 °F 32.0 °F 61% 29.84 in 10.0 mi West 9.2 mph - N/A   Clear
1:15 PM 44.6 °F 39.7 °F 32.0 °F 61% 29.83 in 10.0 mi WNW 9.2 mph - N/A   Clear
1:35 PM 44.6 °F 39.7 °F 32.0 °F 61% 29.83 in 10.0 mi NW 9.2 mph - N/A   Clear
1:55 PM 44.6 °F 38.8 °F 32.0 °F 61% 29.83 in 10.0 mi WNW 11.5 mph 17.3 mph N/A   Clear
2:15 PM 41.0 °F 35.8 °F 28.4 °F 61% 29.83 in 10.0 mi WNW 8.1 mph - N/A   Clear
2:35 PM 39.2 °F 33.6 °F 28.4 °F 65% 29.83 in 10.0 mi West 8.1 mph - N/A   Clear
2:55 PM 39.2 °F - 30.2 °F 70% 29.84 in 10.0 mi Calm Calm - N/A   Clear
3:15 PM 42.8 °F 39.3 °F 30.2 °F 61% 29.84 in 10.0 mi NW 5.8 mph - N/A   Clear
3:35 PM 44.6 °F 39.2 °F 28.4 °F 53% 29.84 in 10.0 mi West 10.4 mph - N/A   Clear
3:55 PM 44.6 °F 39.7 °F 28.4 °F 53% 29.84 in 10.0 mi NW 9.2 mph - N/A   Clear
4:15 PM 44.6 °F 38.8 °F 28.4 °F 53% 29.84 in 10.0 mi WNW 11.5 mph - N/A   Clear
4:35 PM 44.6 °F 39.2 °F 28.4 °F 53% 29.84 in 10.0 mi WNW 10.4 mph - N/A   Clear
4:55 PM 44.6 °F 41.4 °F 28.4 °F 53% 29.85 in 10.0 mi WNW 5.8 mph - N/A   Clear
5:15 PM 44.6 °F 42.2 °F 28.4 °F 53% 29.85 in 10.0 mi West 4.6 mph - N/A   Clear
5:35 PM 44.6 °F - 28.4 °F 53% 29.84 in 10.0 mi Calm Calm - N/A   Clear
5:55 PM 44.6 °F - 28.4 °F 53% 29.85 in 10.0 mi Calm Calm - N/A   Clear
6:15 PM 41.0 °F 38.0 °F 28.4 °F 61% 29.85 in 10.0 mi WSW 4.6 mph - N/A   Clear
6:35 PM 41.0 °F 38.0 °F 26.6 °F 57% 29.86 in 10.0 mi West 4.6 mph - N/A   Clear
6:55 PM 39.2 °F 37.0 °F 26.6 °F 61% 29.86 in 10.0 mi NW 3.5 mph - N/A   Clear
7:15 PM 39.2 °F - 26.6 °F 61% 29.86 in 10.0 mi North - - N/A   Clear
7:35 PM 37.4 °F - 26.6 °F 65% 29.87 in 10.0 mi Calm Calm - N/A   Clear
7:55 PM 39.2 °F - 26.6 °F 61% 29.87 in 10.0 mi Calm Calm - N/A   Clear
8:15 PM 35.6 °F - 26.6 °F 70% 29.87 in 10.0 mi Calm Calm - N/A   Clear
8:35 PM 35.6 °F 27.1 °F 26.6 °F 70% 29.86 in 10.0 mi SSW 12.7 mph - N/A   Clear
8:55 PM 35.6 °F 29.9 °F 24.8 °F 65% 29.86 in 10.0 mi SW 6.9 mph - N/A   Clear
9:15 PM 35.6 °F 29.2 °F 24.8 °F 65% 29.85 in 10.0 mi SSW 8.1 mph - N/A   Clear
9:35 PM 35.6 °F 30.7 °F 24.8 °F 65% 29.85 in 10.0 mi South 5.8 mph - N/A   Clear
9:55 PM 35.6 °F 29.2 °F 24.8 °F 65% 29.85 in 10.0 mi South 8.1 mph - N/A   Clear
10:15 PM 33.8 °F 27.7 °F 24.8 °F 70% 29.84 in 10.0 mi SSW 6.9 mph - N/A   Clear
10:35 PM 32.0 °F 24.8 °F 24.8 °F 75% 29.84 in 10.0 mi SSW 8.1 mph - N/A   Clear
10:55 PM 32.0 °F 23.0 °F 24.8 °F 75% 29.84 in 10.0 mi SSW 11.5 mph - N/A   Clear
11:15 PM 32.0 °F 24.8 °F 24.8 °F 75% 29.84 in 10.0 mi South 8.1 mph - N/A   Clear
11:35 PM 32.0 °F 26.4 °F 24.8 °F 75% 29.84 in 10.0 mi South 5.8 mph - N/A   Clear
11:55 PM 32.0 °F 28.7 °F 23.0 °F 69% 29.83 in 10.0 mi SSW 3.5 mph - N/A   Clear